Albuquerque, NM

8:18 AM MDT on October 22, 2017 (GMT -0600)
Albuquerque International Sunport

Weather History for KABQ - January, 2014

Change the Weather History Date:

Saturday, January 25, 2014

  Actual Average Record
Temperature  
Mean Temperature 37 °F 37 °F  
Max Temperature 50 °F 48 °F 67 °F (1952)
Min Temperature 23 °F 27 °F 0 °F (1898)
Degree Days  
Heating Degree Days 28 28  
Month to date heating degree days 671 722  
Since 1 July heating degree days 2465 2479  
Cooling Degree Days 0 0  
Month to date cooling degree days 0 0  
Year to date cooling degree days 0 0  
Moisture  
Dew Point 10 °F    
Average Humidity 38    
Maximum Humidity 60    
Minimum Humidity 16    
Precipitation  
Precipitation 0.00 in 0.01 in 0.87 in (1962)
Month to date precipitation 0.00 0.30  
Year to date precipitation 0.00 0.30  
Snow  
Snow 0.00 in - - ()
Month to date snowfall 0.0  
Since 1 July snowfall 4.9  
Snow Depth 0.00 in    
Sea Level Pressure  
Sea Level Pressure 30.27 in    
Wind  
Wind Speed 5 mph (NW)    
Max Wind Speed 12 mph    
Max Gust Speed 14 mph    
Visibility 10 miles    
Events      
T = Trace of Precipitation, MM = Missing Value Source: NWS Daily Summary

Daily Weather History Graph

Daily Weather History Graph

Search for Another Location

Airport or City:

Trip Planner

Search our weather history database for the weather conditions in past years. The results will help you decide how hot, cold, wet, or windy it might be!

Date:

Astronomy

Jan. 25, 2014 Rise Set
Actual Time 7:09 AM MST 5:28 PM MST
Civil Twilight 6:42 AM MST 5:55 PM MST
Nautical Twilight 6:12 AM MST 6:25 PM MST
Astronomical Twilight 5:42 AM MST 6:55 PM MST
Moon 1:45 AM MST (1/25) 12:30 PM MST (1/25)
Length of Visible Light 11h 12m
Length of Day
10h 18m
Waning Crescent, 33% of the Moon is Illuminated
Jan 25
Waning Crescent
Jan 30
New
Feb 6
First Quarter
Feb 14
Full
Feb 22
Last Quarter

Hourly Weather History & Observations

Time (MST) Temp. Windchill Dew Point Humidity Pressure Visibility Wind Dir Wind Speed Gust Speed Precip Events Conditions
12:52 AM 25.0 °F - 10.9 °F 55% 30.45 in 10.0 mi Calm Calm - N/A   Mostly Cloudy
1:52 AM 27.0 °F 21.6 °F 10.9 °F 51% 30.42 in 10.0 mi East 4.6 mph - N/A   Mostly Cloudy
2:52 AM 26.1 °F - 12.0 °F 55% 30.41 in 10.0 mi Calm Calm - N/A   Mostly Cloudy
3:52 AM 28.9 °F 23.9 °F 12.0 °F 49% 30.38 in 10.0 mi West 4.6 mph - N/A   Mostly Cloudy
4:52 AM 24.1 °F - 12.0 °F 60% 30.39 in 10.0 mi Calm Calm - N/A   Mostly Cloudy
5:52 AM 28.9 °F 21.9 °F 12.9 °F 51% 30.37 in 10.0 mi North 6.9 mph - N/A   Mostly Cloudy
6:52 AM 28.9 °F 21.1 °F 12.9 °F 51% 30.38 in 10.0 mi NNE 8.1 mph - N/A   Mostly Cloudy
7:52 AM 30.9 °F 24.3 °F 12.9 °F 47% 30.36 in 10.0 mi NNE 6.9 mph - N/A   Mostly Cloudy
8:52 AM 28.9 °F 23.9 °F 14.0 °F 54% 30.38 in 10.0 mi NW 4.6 mph - N/A   Overcast
9:52 AM 32.0 °F 27.5 °F 12.9 °F 45% 30.37 in 10.0 mi NW 4.6 mph - N/A   Overcast
10:52 AM 35.1 °F 29.3 °F 12.9 °F 40% 30.37 in 10.0 mi WNW 6.9 mph - N/A   Mostly Cloudy
11:52 AM 41.0 °F 37.1 °F 12.9 °F 32% 30.30 in 10.0 mi NW 5.8 mph - N/A   Mostly Cloudy
12:52 PM 45.0 °F 43.5 °F 12.0 °F 26% 30.26 in 10.0 mi NW 3.5 mph - N/A   Mostly Cloudy
1:52 PM 46.0 °F 43.9 °F 12.0 °F 25% 30.20 in 10.0 mi South 4.6 mph - N/A   Mostly Cloudy
2:52 PM 48.9 °F - 10.0 °F 21% 30.17 in 10.0 mi South 3.5 mph - N/A   Mostly Cloudy
3:52 PM 50.0 °F - 9.0 °F 19% 30.13 in 10.0 mi South 3.5 mph - N/A   Mostly Cloudy
4:52 PM 48.0 °F - 9.0 °F 21% 30.15 in 10.0 mi South 6.9 mph - N/A   Mostly Cloudy
5:52 PM 45.0 °F 41.2 °F 8.1 °F 22% 30.15 in 10.0 mi South 6.9 mph - N/A   Mostly Cloudy
6:52 PM 41.0 °F - 8.1 °F 26% 30.16 in 10.0 mi Calm Calm - N/A   Mostly Cloudy
7:52 PM 42.1 °F 40.2 °F 9.0 °F 26% 30.15 in 10.0 mi West 3.5 mph - N/A   Mostly Cloudy
8:52 PM 43.0 °F 40.3 °F 9.0 °F 25% 30.15 in 10.0 mi NNE 4.6 mph - N/A   Scattered Clouds
9:52 PM 44.1 °F 38.6 °F -0.0 °F 16% 30.13 in 10.0 mi North 10.4 mph - N/A   Partly Cloudy
10:52 PM 39.9 °F 35.1 °F 1.0 °F 20% 30.12 in 10.0 mi North 6.9 mph - N/A   Partly Cloudy
11:52 PM 39.0 °F 32.8 °F 3.9 °F 23% 30.09 in 10.0 mi NNW 9.2 mph - N/A   Partly Cloudy